Regional Weather Roundup
Issued by NWS Charleston, SC

Current Version | Previous Version | Graphics & Text | Print | Product List | Glossary On
Versions: 1 2 3 4 5 6 7 8 9 10 11 12 13 14 15 16 17 18 19 20 21 22 23 24 25 26 27 28 29 30 31 32 33 34 35 36 37 38 39 40 41 42 43 44 45 46 47 48 49 50
000
ASUS42 KCHS 041627
RWRCHS

REGIONAL WEATHER ROUNDUP
NATIONAL WEATHER SERVICE CHARLESTON SC
1200 PM EDT TUE AUG 04 2015

NOTE: "FAIR" INDICATES FEW OR NO CLOUDS BELOW 12,000 FEET WITH NO
SIGNIFICANT WEATHER AND/OR OBSTRUCTIONS TO VISIBILITY.

NOT ALL STATIONS ARE QUALITY CONTROLLED BY THE NATIONAL
WEATHER SERVICE. USE DATA WITH CAUTION...ESPECIALLY
DEWPOINT OBSERVATIONS.

SCZ027-030-031-034>040-042>050-041700-
...SOUTHEAST SOUTH CAROLINA...

CITY           SKY/WX    TMP DP  RH WIND       PRES   REMARKS
N CHARLESTON   PTSUNNY   84  75  74 NW10      29.97S HX  92
WATERFRONT PRK   N/A     80  76  87 W5        29.95R
MOUNT PLEASANT FAIR      82  75  78 W8        29.97R
JOHNS ISLAND   PTSUNNY   84  77  79 SW5       29.99R HX  94
PINOPOLIS      NOT AVBL
MONCKS CORNER  LGT RAIN  79  75  89 CALM      29.98R
SUMMERVILLE    PTSUNNY   84  77  79 NW3       29.99R HX  94
BEAUFORT MCAS  PTSUNNY   86  75  70 NW10      30.00R HX  95
BEAUFORT ARPT  PTSUNNY   84  75  74 NW8       29.99S HAZE    HX  92
HILTON HEAD IS PTSUNNY   82  73  74 NW7       30.01R
WALTERBORO     CLOUDY    86  73  66 W6        30.00R HX  93
ALLENDALE      FAIR      88  73  62 VRB6      29.99R HX  96

...SOUTHERN MIDLANDS AND PEE DEE...

CITY           SKY/WX    TMP DP  RH WIND       PRES   REMARKS
GEORGETOWN     NOT AVBL
KINGSTREE      NOT AVBL
ORANGEBURG     MOSUNNY   88  72  58 VRB5      29.98F HX  94
BARNWELL       FAIR      90  73  58 N8        29.99F HX  98
AIKEN          FAIR      88  68  51 CALM      30.04S HX  91
MANNING        RAIN      81  72  74 NW6       29.97S
COLUMBIA       MOSUNNY   92  69  47 NW5       29.98F HX  97
SUMTER         MOSUNNY   89  72  56 N8        29.95F HX  95
FLORENCE       MOSUNNY   88  73  61 NE8       29.96F HX  95
MYRTLE BEACH   PTSUNNY   84  75  74 MISG      29.93F HX  92
N MYRTLE BEACH CLOUDY    81  77  88 SE9G18    29.93S

$$

GAZ063-065-086>088-099>101-113>116-118-119-134>141-150-041700-
...SOUTHEAST GEORGIA...

CITY           SKY/WX    TMP DP  RH WIND       PRES   REMARKS
SAVANNAH ARPT  PTSUNNY   87  73  62 N6        30.01R HX  94
HUNTER AAF     PTSUNNY   86  77  74 VRB3      29.99R HX  97
FORT STEWART   MOSUNNY   86  75  70 VRB3      29.99R HX  95
STATESBORO     SUNNY     86  78  76 NW7       30.02S HX  98
SYLVANIA       SUNNY     88  77  70 CALM      30.02S HX  99
CLAXTON        NOT AVBL

...CSRA...CENTRAL AND FAR SOUTHEAST GEORGIA...

CITY           SKY/WX    TMP DP  RH WIND       PRES   REMARKS
THOMSON        SUNNY     91  76  60 S3        30.05S HX 103
AUGUSTA-BUSH   SUNNY     88  72  58 CALM      29.99F HX  94
AUGUSTA-DANIEL SUNNY     88  71  57 CALM      30.02F HX  94
SWAINSBORO     FAIR      88  75  66 S3        30.03S HX  97
VIDALIA        SUNNY     86  73  66 CALM      30.03S HX  93
EASTMAN        FAIR      94  71  46 CALM      30.03S HX 102
HAZLEHURST     FAIR      90  77  64 CALM      30.01S HX 103
ALMA           SUNNY     89  77  67 VRB6      30.02R HX 101
WAYCROSS       SUNNY     93  80  66 N7        30.01F HX 112
JESUP          FAIR      91  77  62 N8        30.02S HX 105
BAXLEY         FAIR      90  77  66 NE5       30.01S HX 102
BRUNSWICK      PTSUNNY   86  73  66 CALM      30.03S HX  93
SAINT SIMONS   PTSUNNY   84  74  71 W5        30.03R HX  91

$$

SCZ027-028-034-036>038-045-046-048>050-GAZ119-141-041700-
...LAKE AND SUPPLEMENTAL COASTAL OBSERVATIONS...

STATION/POSITION TIME  TEMP    WIND        PRES    WAVE   SWELL
                       AIR SEA DIR/SP/G            HT/PER HT/PER/DIR
                 (UTC) (F)     (DEG/KT/KT) (MB)    (FT/S) (FT/S/D)
UPR LAKE MARION  NOT AVBL
WINYAH BAY       1500   78     280/  7     1012.0
LAKE MURRAY      1600   84     190/  8/  9 1014.9S
ACE BASIN NERRS  1500   81     320/  2     1015.0
FORT PULASKI     1600   82 84  290/  6/ 10 1016.5R
SAPELO ISLAND    1600   85     250/  2     1017.0R

$$

ANZ835-935-AMZ111-154-330-350-352-354-370-450-454-472-041700-
...C-MAN AND BUOY OBSERVATIONS...

STATION/POSITION TIME  TEMP    WIND        PRES    WAVE   SWELL
                       AIR SEA DIR/SP/G            HT/PER HT/PER/DIR
                 (UTC) (F)     (DEG/KT/KT) (MB)    (FT/S) (FT/S/D)
BUOY 41004       1550   81 83  250/ 14/ 17 1014.3R   6/ 7   3/ 8
BUOY 41008       1550   80 83  290/  6/  8 1016.8R   4/ 5   3/150/ 5
FOLLY BEACH CMAN 1600   81     280/  6/  9 1015.4R
CAPERS NEARSHORE 1508   80     290/ 10/ 16 1014.7R
FRIPP NEARSHORE  1500   81     290/  8/ 10 1015.1R


STATION/POSITION TIME  TEMP    WIND        PRES    WAVE   SWELL
                       AIR SEA DIR/SP/G            HT/PER HT/PER/DIR
                 (UTC) (F)     (DEG/KT/KT) (MB)    (FT/S) (FT/S/D)
5E ST. MARYS GA  1521      82                N/A     3/ 6
FRYING PAN BUOY  1550   75 81  170/ 27/ 31 1014.9F  10/ 8   5/140/11
BUOY 41025       1550   78 84  220/ 29/ 35 1017.4F   4/ 7   2/190/ 7
CAPE LOOKOUT NC  1600   80     190/ 18/ 22 1017.2R
BUOY 41002       1550   83 81  200/ 12/ 16 1019.9R   5/ 6   3/250/ 6
BUOY 41010       1520   83 84  180/ 14/ 16 1018.7R
ST AUGUSTINE FL  1600   83 77  240/  6/  9 1018.3R


$$


USA.gov is the U.S. government's official web portal to all federal, state and local government web resources and services.